Content
SEND FEEDBACK

Daily
Averages
Monthly
Summary
Australia

LISMORE, NEW SOUTH WALES


Home > Oceania > Australia > New South Wales
Elevation: 36 feet     Latitude: 28 48S     Longitude: 153 15E

WEATHER
 
SELECT A DAY
Number of Records: 190,343;   Date Range: 10/20/03 - 7/9/14
 
SHARE

PRINT THIS DATA

[ ← Previous Day ]
WEATHER ALMANAC - JANUARY 23, 2013
[ Next Day → ]
[ °C ]   °F
Weather ElementAverageHighLow
Temperature77.1 °F84.2 °F (12:30 pm)68 °F (4:00 am)
Dewpoint69 °F71.6 °F (2:30 pm)66.2 °F (4:00 am)
Humidity76.3 %94 % (12:30 am)56 % (12:00 pm)
Barometer29.89 in29.95 in (9:30 pm)29.83 in (4:00 am)
Wind Speed7.5 mph13.8 mph (1:00 pm)
Weather ElementAverage
Visibility6.2 mi
Wind DirectionESE (118.4 °)

Weather ElementTotal
Precipitation---
Cooling Degree Days11.1 (Base 65)
Growing Degree Days26.1 (Base 50)
Averaged from 55 records on January 23, 2013
WEATHER CONDITIONS BREAKOUT
WIND DIRECTION BREAKOUT
WEATHER BY HOUR - JANUARY 23, 2013
[ °C ]   °F
Local TimeTemperatureDewpointHumidityBarometerVisibilityWind DirectionWind SpeedGust SpeedPrecipitationEventsConditions
12:00 AM71.6 °F68.0 °F88 %29.89 in6.2 miWSW (250°)3.5 mphScattered Clouds
12:30 AM69.8 °F68.0 °F94 %29.89 in6.2 miWSW (250°)3.5 mph
1:00 AM69.8 °F68.0 °F94 %29.86 in6.2 miWSW (240°)3.5 mphScattered Clouds
1:30 AM69.8 °F68.0 °F94 %29.86 in6.2 miCalm
2:00 AM69.8 °F68.0 °F94 %29.86 in6.2 miSSW (210°)1.2 mphScattered Clouds
2:30 AM69.8 °F68.0 °F94 %29.86 in6.2 miWSW (240°)1.2 mphScattered Clouds
3:00 AM69.8 °F68.0 °F94 %29.86 in6.2 miWSW (240°)6.9 mphScattered Clouds
3:00 AM70.0 °F68.0 °F92 %29.86 inWSW (240°)6.9 mph
3:30 AM69.8 °F68.0 °F94 %29.86 in6.2 miSW (220°)3.5 mph
4:00 AM68.0 °F66.2 °F94 %29.83 in6.2 miCalmScattered Clouds
4:30 AM69.8 °F68.0 °F94 %29.86 in6.2 miSW (230°)3.5 mph
5:00 AM69.8 °F68.0 °F94 %29.86 in6.2 miSW (220°)3.5 mph
5:30 AM69.8 °F68.0 °F94 %29.86 in6.2 miSSW (200°)3.5 mphScattered Clouds
6:00 AM69.8 °F68.0 °F94 %29.89 in6.2 miSW (220°)3.5 mphScattered Clouds
6:00 AM71.0 °F68.0 °F89 %29.89 inSW (220°)3.5 mph
6:30 AM73.4 °F68.0 °F83 %29.89 in6.2 miSW (220°)4.6 mphMostly Cloudy
7:00 AM75.2 °F69.8 °F83 %29.89 in6.2 miESE (120°)1.2 mphMostly Cloudy
7:30 AM75.2 °F69.8 °F83 %29.89 in6.2 miSSE (160°)4.6 mphMostly Cloudy
8:00 AM77.0 °F69.8 °F78 %29.92 in6.2 miSSE (160°)6.9 mphOvercast
8:30 AM77.0 °F69.8 °F78 %29.92 in6.2 miENE (70°)3.5 mphOvercast
9:00 AM78.8 °F69.8 °F74 %29.92 in6.2 miSSE (150°)6.9 mphOvercast
9:00 AM78.0 °F70.0 °F71 %29.93 inSSE (150°)6.9 mphOvercast
9:30 AM77.0 °F69.8 °F78 %29.92 in6.2 miSSE (160°)8.1 mphOvercast
10:00 AM82.4 °F69.8 °F66 %29.92 in6.2 miSouth (180°)4.6 mphOvercast
10:30 AM82.4 °F68.0 °F62 %29.92 in6.2 miNE (50°)8.1 mphScattered Clouds
11:00 AM82.4 °F69.8 °F66 %29.92 in6.2 miNE (50°)9.2 mph
11:30 AM82.4 °F69.8 °F66 %29.89 in6.2 miENE (60°)10.4 mph
12:00 PM82.4 °F69.8 °F66 %29.89 in6.2 miENE (60°)11.5 mph
12:00 PM83.0 °F70.0 °F56 %29.90 inENE (60°)11.5 mph
12:30 PM84.2 °F69.8 °F62 %29.89 in6.2 miENE (60°)11.5 mphScattered Clouds
1:00 PM82.4 °F68.0 °F62 %29.89 in6.2 miNE (50°)13.8 mph
1:30 PM84.2 °F69.8 °F62 %29.89 in6.2 miNE (40°)12.7 mphScattered Clouds
2:00 PM84.2 °F69.8 °F62 %29.86 in6.2 miNE (40°)12.7 mphMostly Cloudy
2:30 PM84.2 °F71.6 °F66 %29.86 in6.2 miENE (60°)13.8 mphScattered Clouds
3:00 PM84.2 °F71.6 °F66 %29.86 in6.2 miNE (50°)13.8 mphScattered Clouds
3:00 PM83.0 °F71.0 °F58 %29.87 inNE (50°)13.8 mph
3:30 PM82.4 °F69.8 °F66 %29.86 in6.2 miNE (50°)11.5 mphScattered Clouds
4:00 PM82.4 °F69.8 °F66 %29.86 in6.2 miNE (50°)12.7 mphScattered Clouds
4:30 PM84.2 °F69.8 °F62 %29.86 in6.2 miNE (50°)12.7 mphMostly Cloudy
5:00 PM80.6 °F69.8 °F70 %29.86 in6.2 miNE (50°)11.5 mphScattered Clouds
5:30 PM80.6 °F69.8 °F70 %29.86 in6.2 miNE (50°)10.4 mphMostly Cloudy
6:00 PM80.6 °F69.8 °F70 %29.89 in6.2 miNE (50°)10.4 mphMostly Cloudy
6:00 PM80.0 °F69.0 °F63 %29.89 inNE (50°)10.4 mphOvercast
6:30 PM78.8 °F69.8 °F74 %29.89 in6.2 miENE (60°)10.4 mphOvercast
7:00 PM78.8 °F69.8 °F74 %29.92 in6.2 miENE (60°)9.2 mphScattered Clouds
7:30 PM78.8 °F68.0 °F69 %29.92 in6.2 miENE (60°)10.4 mphMostly Cloudy
8:00 PM78.8 °F68.0 °F69 %29.92 in6.2 miENE (70°)10.4 mphMostly Cloudy
8:30 PM78.8 °F68.0 °F69 %29.92 in6.2 miENE (60°)10.4 mphScattered Clouds
9:00 PM78.8 °F68.0 °F69 %29.92 in6.2 miENE (60°)9.2 mphScattered Clouds
9:00 PM78.0 °F68.0 °F63 %29.94 inENE (60°)9.2 mph
9:30 PM77.0 °F68.0 °F74 %29.95 in6.2 miESE (110°)6.9 mph
10:00 PM77.0 °F68.0 °F74 %29.95 in6.2 miESE (110°)5.8 mphMostly Cloudy
10:30 PM75.2 °F68.0 °F78 %29.95 in6.2 miSE (130°)4.6 mphMostly Cloudy
11:00 PM73.4 °F68.0 °F83 %29.92 in6.2 miSSE (160°)3.5 mphScattered Clouds
11:30 PM73.4 °F69.8 °F88 %29.92 in6.2 miWSW (240°)4.6 mphScattered Clouds
Hourly data recorded from YLIS, located miles away from Lismore, New South Wales







STORIES FROM OUR PARTNERS